York, NE

4:58 AM CST on November 15, 2019 (GMT -0600)
York Municipal

Weather History for KJYR - October, 2019

Change the Weather History Date:

Monday, October 21, 2019

  Actual Average Record
Temperature  
Mean Temperature 44 °F -  
Max Temperature 50 °F 64 °F 87 °F (2003)
Min Temperature 39 °F 39 °F 19 °F (1987)
Degree Days  
Heating Degree Days 20    
Moisture  
Dew Point 36 °F    
Average Humidity 75    
Maximum Humidity 93    
Minimum Humidity 57    
Precipitation  
Precipitation 0.00 in - - ()
Sea Level Pressure  
Sea Level Pressure 29.59 in    
Wind  
Wind Speed 16 mph (WNW)    
Max Wind Speed 30 mph    
Max Gust Speed 39 mph    
Visibility 10 miles    
Events Rain    
Averages and records for this station are not official NWS values.
T = Trace of Precipitation, MM = Missing Value Source: NWS Daily Summary

Daily Weather History Graph

Daily Weather History Graph

Search for Another Location

Airport or City:

Astronomy

Oct. 21, 2019 Rise Set
Actual Time 7:48 AM CDT 6:41 PM CDT
Civil Twilight 7:20 AM CDT 7:09 PM CDT
Nautical Twilight 6:48 AM CDT 7:41 PM CDT
Astronomical Twilight 6:16 AM CDT 8:12 PM CDT
Moon No Moon Rise 3:08 PM CDT (10/21)
Length of Visible Light 11h 48m
Length of Day
10h 53m
Waning Gibbous, 48% of the Moon is Illuminated
Oct 21
Waning Gibbous
Oct 27
New
Nov 4
First Quarter
Nov 12
Full
Nov 19
Last Quarter

Hourly Weather History & Observations

Time (CDT) Temp. Windchill Dew Point Humidity Pressure Visibility Wind Dir Wind Speed Gust Speed Precip Events Conditions
12:15 AM 44.6 °F 39.7 °F 33.8 °F 66% 29.50 in 10.0 mi SW 9.2 mph - N/A   Partly Cloudy
12:35 AM 42.8 °F 37.5 °F 33.8 °F 70% 29.49 in 10.0 mi SW 9.2 mph - N/A   Partly Cloudy
12:55 AM 42.8 °F 37.5 °F 35.6 °F 76% 29.48 in 10.0 mi WSW 9.2 mph - N/A   Clear
1:15 AM 42.8 °F 37.5 °F 35.6 °F 76% 29.47 in 10.0 mi WSW 9.2 mph - N/A   Clear
1:35 AM 41.0 °F 36.4 °F 35.6 °F 81% 29.47 in 10.0 mi SW 6.9 mph - N/A   Clear
1:55 AM 41.0 °F 35.8 °F 35.6 °F 81% 29.47 in 10.0 mi WSW 8.1 mph - N/A   Clear
2:15 AM 41.0 °F 35.2 °F 35.6 °F 81% 29.47 in 10.0 mi West 9.2 mph - N/A   Clear
2:35 AM 41.0 °F 34.7 °F 35.6 °F 81% 29.47 in 10.0 mi West 10.4 mph - N/A   Clear
2:55 AM 42.8 °F 35.8 °F 37.4 °F 81% 29.48 in 10.0 mi West 13.8 mph - N/A   Clear
3:15 AM 42.8 °F 35.8 °F 37.4 °F 81% 29.48 in 10.0 mi WNW 13.8 mph - N/A   Mostly Cloudy
3:35 AM 41.0 °F 33.1 °F 37.4 °F 87% 29.47 in 10.0 mi West 15.0 mph 20.7 mph N/A   Scattered Clouds
3:55 AM 41.0 °F 33.1 °F 37.4 °F 87% 29.47 in 10.0 mi West 15.0 mph - N/A   Clear
4:15 AM 41.0 °F 33.5 °F 37.4 °F 87% 29.47 in 10.0 mi West 13.8 mph - N/A   Clear
4:35 AM 39.2 °F 30.5 °F 37.4 °F 93% 29.47 in 10.0 mi West 16.1 mph - N/A   Partly Cloudy
4:55 AM 39.2 °F 29.3 °F 35.6 °F 87% 29.47 in 10.0 mi West 20.7 mph 25.3 mph N/A   Clear
5:15 AM 39.2 °F 31.2 °F 35.6 °F 87% 29.48 in 10.0 mi West 13.8 mph 20.7 mph N/A   Clear
5:35 AM 39.2 °F 29.8 °F 35.6 °F 87% 29.47 in 10.0 mi West 18.4 mph 24.2 mph N/A   Clear
5:55 AM 39.2 °F 30.5 °F 35.6 °F 87% 29.47 in 10.0 mi West 16.1 mph 21.9 mph N/A   Clear
6:15 AM 39.2 °F 31.2 °F 35.6 °F 87% 29.46 in 10.0 mi West 13.8 mph - N/A   Clear
6:35 AM 39.2 °F 29.3 °F 35.6 °F 87% 29.46 in 10.0 mi West 20.7 mph 26.5 mph N/A   Clear
6:55 AM 39.2 °F 29.8 °F 33.8 °F 81% 29.45 in 10.0 mi West 18.4 mph - N/A   Clear
7:15 AM 39.2 °F 29.6 °F 35.6 °F 87% 29.44 in 10.0 mi WNW 19.6 mph 25.3 mph N/A   Scattered Clouds
7:35 AM 41.0 °F 32.5 °F 35.6 °F 81% 29.44 in 10.0 mi WNW 17.3 mph 25.3 mph N/A   Overcast
7:55 AM 41.0 °F 31.9 °F 35.6 °F 81% 29.44 in 10.0 mi WNW 19.6 mph 26.5 mph N/A   Overcast
8:15 AM 41.0 °F 31.4 °F 35.6 °F 81% 29.44 in 10.0 mi WNW 21.9 mph 27.6 mph N/A   Overcast
8:35 AM 41.0 °F 30.7 °F 35.6 °F 81% 29.43 in 10.0 mi WNW 25.3 mph 31.1 mph N/A   Overcast
8:55 AM 41.0 °F 31.6 °F 35.6 °F 81% 29.45 in 10.0 mi WNW 20.7 mph 32.2 mph N/A   Overcast
9:15 AM 41.0 °F 31.6 °F 35.6 °F 81% 29.46 in 10.0 mi WNW 20.7 mph 26.5 mph N/A   Overcast
9:35 AM 42.8 °F 33.5 °F 35.6 °F 76% 29.47 in 10.0 mi WNW 23.0 mph - N/A   Overcast
9:55 AM 44.6 °F 36.1 °F 35.6 °F 71% 29.47 in 10.0 mi WNW 21.9 mph 31.1 mph N/A   Overcast
10:15 AM 42.8 °F 33.5 °F 35.6 °F 76% 29.47 in 10.0 mi WNW 23.0 mph 29.9 mph N/A   Overcast
10:35 AM 44.6 °F 35.5 °F 37.4 °F 76% 29.49 in 10.0 mi WNW 25.3 mph 31.1 mph N/A   Overcast
10:55 AM 44.6 °F 36.9 °F 37.4 °F 76% 29.50 in 10.0 mi NW 18.4 mph 28.8 mph N/A   Overcast
11:15 AM 46.4 °F 38.3 °F 39.2 °F 76% 29.50 in 10.0 mi NW 23.0 mph 31.1 mph N/A   Overcast
11:35 AM 46.4 °F 37.4 °F 39.2 °F 76% 29.49 in 10.0 mi NW 28.8 mph 35.7 mph N/A   Mostly Cloudy
11:55 AM 48.2 °F - 39.2 °F 71% 29.50 in 10.0 mi WNW 29.9 mph 35.7 mph N/A   Overcast
12:15 PM 50.0 °F - 39.2 °F 66% 29.51 in 10.0 mi NW 29.9 mph 39.1 mph N/A   Mostly Cloudy
12:35 PM 48.2 °F - 39.2 °F 71% 29.52 in 10.0 mi WNW 27.6 mph - N/A   Mostly Cloudy
12:55 PM 46.4 °F 37.7 °F 39.2 °F 76% 29.54 in 10.0 mi WNW 26.5 mph 36.8 mph N/A   Overcast
1:15 PM 46.4 °F 38.1 °F 37.4 °F 71% 29.56 in 10.0 mi WNW 24.2 mph 34.5 mph N/A   Overcast
1:35 PM 46.4 °F - 37.4 °F 71% 29.57 in 10.0 mi North - - N/A   Overcast
1:55 PM 46.4 °F 38.5 °F 37.4 °F 71% 29.57 in 10.0 mi WNW 21.9 mph 28.8 mph N/A   Overcast
2:15 PM 46.4 °F - 37.4 °F 71% 29.57 in 10.0 mi North - - N/A   Overcast
2:35 PM 46.4 °F - 37.4 °F 71% 29.58 in 10.0 mi North - - N/A   Overcast
2:55 PM 46.4 °F - 37.4 °F 71% 29.59 in 10.0 mi North - - N/A   Overcast
3:15 PM 48.2 °F - 37.4 °F 66% 29.59 in 10.0 mi North - - N/A   Overcast
3:35 PM 48.2 °F - 37.4 °F 66% 29.60 in 10.0 mi North - - N/A   Overcast
3:55 PM 48.2 °F - 37.4 °F 66% 29.62 in 10.0 mi North - - N/A   Overcast
4:15 PM 46.4 °F - 37.4 °F 71% 29.63 in 10.0 mi North - - N/A   Overcast
4:35 PM 46.4 °F - 37.4 °F 71% 29.64 in 10.0 mi North - - N/A   Overcast
4:55 PM 46.4 °F - 39.2 °F 76% 29.66 in 10.0 mi North - - N/A Rain Light Rain
5:15 PM 46.4 °F - 37.4 °F 71% 29.68 in 10.0 mi North - - N/A Rain Light Rain
5:35 PM 44.6 °F - 37.4 °F 76% 29.69 in 10.0 mi North - - N/A   Overcast
5:55 PM 46.4 °F - 37.4 °F 71% 29.70 in 10.0 mi North - - N/A   Mostly Cloudy
6:15 PM 44.6 °F - 39.2 °F 81% 29.72 in 10.0 mi North - - N/A Rain Light Rain
6:35 PM 46.4 °F 37.2 °F 37.4 °F 71% 29.73 in 10.0 mi NW 29.9 mph 34.5 mph N/A   Overcast
6:55 PM 46.4 °F - 37.4 °F 71% 29.74 in 10.0 mi North - - N/A   Overcast
7:15 PM 46.4 °F - 37.4 °F 71% 29.76 in 10.0 mi North - - N/A   Overcast
7:35 PM 46.4 °F - 37.4 °F 71% 29.77 in 10.0 mi North - - N/A   Overcast
7:55 PM 44.6 °F - 37.4 °F 76% 29.79 in 10.0 mi North - - N/A   Overcast
8:15 PM 44.6 °F - 35.6 °F 71% 29.80 in 10.0 mi North - - N/A   Overcast
8:35 PM 44.6 °F 35.5 °F 35.6 °F 71% 29.81 in 10.0 mi NW 25.3 mph 29.9 mph N/A   Overcast
8:55 PM 44.6 °F 35.1 °F 35.6 °F 71% 29.82 in 10.0 mi NW 27.6 mph 34.5 mph N/A   Overcast
9:15 PM 44.6 °F 36.4 °F 33.8 °F 66% 29.82 in 10.0 mi NW 20.7 mph 33.4 mph N/A   Mostly Cloudy
9:35 PM 44.6 °F 35.7 °F 32.0 °F 61% 29.82 in 10.0 mi NW 24.2 mph 33.4 mph N/A   Overcast
9:55 PM 44.6 °F 36.4 °F 32.0 °F 61% 29.83 in 10.0 mi NW 20.7 mph 28.8 mph N/A   Scattered Clouds
10:15 PM 44.6 °F 35.9 °F 32.0 °F 61% 29.83 in 10.0 mi NW 23.0 mph 29.9 mph N/A   Partly Cloudy
10:35 PM 44.6 °F 36.1 °F 32.0 °F 61% 29.84 in 10.0 mi NW 21.9 mph 25.3 mph N/A   Clear
10:55 PM 44.6 °F 35.9 °F 30.2 °F 57% 29.85 in 10.0 mi NW 23.0 mph 29.9 mph N/A   Clear
11:15 PM 44.6 °F 35.9 °F 30.2 °F 57% 29.85 in 10.0 mi NW 23.0 mph 29.9 mph N/A   Clear
11:35 PM 44.6 °F 35.7 °F 30.2 °F 57% 29.85 in 10.0 mi NW 24.2 mph 35.7 mph N/A   Clear
11:55 PM 44.6 °F 35.7 °F 30.2 °F 57% 29.86 in 10.0 mi NW 24.2 mph 31.1 mph N/A   Clear